Regional Weather Roundup
Issued by NWS

Home | Current Version | Previous Version | Graphics & Text | Print | Product List | Glossary On
Versions: 1 2 3 4 5 6 7 8 9 10 11 12 13 14 15 16 17 18 19 20 21 22 23 24 25 26 27 28 29 30 31 32 33 34 35 36 37 38 39 40 41 42 43 44 45 46 47 48 49 50
000
ASUS45 KSLC 180210
RWRUT

UTAH REGIONAL WEATHER ROUNDUP
NATIONAL WEATHER SERVICE SALT LAKE CITY UT
800 PM MDT WED SEP 17 2014

UTZ001>011-023>025-180300-

NORTHERN UTAH

CITY           SKY/WX    TMP DP  RH WIND       PRES   REMARKS
HILL AFB       CLEAR     82  44  26 E5        29.92S
LOGAN          CLEAR     76  50  40 SE9       29.88F
OGDEN          CLEAR     83  42  23 NE5       29.88F
PROVO AIRPORT  PTCLDY    75  54  46 SE6       29.91S
SALT LAKE CITY PTCLDY    83  44  25 N7        29.86S
VERNAL         MOCLDY    71  42  35 CALM      30.01F
WENDOVER       MOCLDY    88  36  15 E8        29.84S
HEBER CITY     PTCLDY    73  37  27 SE5       30.01R
WEST JORDAN    CLEAR     79  43  27 SW6       29.91R

$$

UTZ012>022-026-027-180300-

SOUTHERN UTAH

CITY           SKY/WX    TMP DP  RH WIND       PRES   REMARKS
BRYCE CANYON   PTCLDY    56  48  74 CALM      30.21R
CEDAR CITY     MOCLDY    66  54  65 SE9       30.03S
MILFORD        MOCLDY    79  46  31 SE3       29.97R
MOAB/CYNLANDS  CLEAR     81  34  18 W5        29.92R
PRICE          CLEAR     78  33  19 SE6       30.04S
ST GEORGE      PTCLDY    82  55  39 E7        29.84S
KANAB            N/A     75  50  41 E6        30.02R

$$

REGIONAL REPORTS     COLORADO/ARIZONA

CITY           SKY/WX    TMP DP  RH WIND       PRES   REMARKS
CRAIG, CO      PTCLDY    62  41  46 S3        30.09R
GRAND JUNCTION CLEAR     76  36  23 N8        29.95R
RIFLE          CLEAR     71  42  35 CALM      30.02R
MONTROSE       PTCLDY    74  45  35 S7        30.06R
CORTEZ         CLEAR     60  53  77 CALM      30.12S
PAGE, AZ       PTCLDY    78  55  44 SW3       29.96R
GRAND CANYON   CLEAR     66  47  50 E3        30.14S
KINGMAN        CLEAR     81  59  47 CALM      29.90R
FLAGSTAFF      PTCLDY    60  55  83 CALM      30.17S

$$

REGIONAL REPORTS    NEVADA/IDAHO/WYOMING

CITY           SKY/WX    TMP DP  RH WIND       PRES   REMARKS
LAS VEGAS, NV  PTCLDY    94  54  25 S10       29.73R HX  92
ELY            MOCLDY    72  44  36 S9        30.03S
ELKO           CLOUDY    78  45  30 N6        29.88F
POCATELLO, ID  CLEAR     77  43  29 SE3       29.86F
BURLEY         PTCLDY    72  52  49 SE5       29.80S
EVANSTON, WY   PTCLDY    65  41  41 SE9       30.14R
ROCK SPRINGS   PTCLDY    71  35  26 SW16      30.12R

$$


USA.gov is the U.S. government's official web portal to all federal, state and local government web resources and services.